AA0FC Weather Reports


Display with metric or nautical units.
time (UTC)temp
F
wind
direction
speed
MPH
gust
MPH
rain 1hr
in
rain 24hr
in
rain mn
in
humidity
%
barometer
mb
20240718212619 83 241 3.0 7.0 0.00 0.06 0.01 38 1023.7
20240718211623 83 242 1.0 11.0 0.00 0.06 0.01 41 1023.9
20240718210611 83 5 0.0 4.0 0.00 0.06 0.01 45 1023.6
20240718210114 83 5 3.0 7.0 0.00 0.06 0.01 44 1023.5
20240718204552 83 1 1.0 6.0 0.00 0.06 0.01 42 1023.4
20240718203535 83 24 3.0 7.0 0.00 0.06 0.01 41 1023.4
20240718202538 83 5 1.0 7.0 0.00 0.06 0.01 41 1023.5
20240718201520 84 174 1.0 6.0 0.00 0.06 0.01 41 1023.4
20240718200523 84 181 1.0 6.0 0.00 0.06 0.01 41 1023.6
20240718195450 85 199 3.0 10.0 0.00 0.06 0.01 36 1023.7
20240718194949 86 263 4.0 13.0 0.00 0.06 0.01 38 1024.0
20240718193443 84 204 3.0 8.0 0.00 0.06 0.01 42 1023.9
20240718192442 83 236 4.0 7.0 0.00 0.06 0.01 41 1024.0
20240718191421 81 252 4.0 11.0 0.00 0.06 0.01 45 1024.1
20240718190417 80 263 3.0 7.0 0.00 0.06 0.01 46 1024.3
20240718185911 80 14 3.0 8.0 0.00 0.06 0.01 45 1024.1
20240718184413 80 72 1.0 8.0 0.00 0.06 0.01 46 1023.6
20240718183345 80 320 3.0 8.0 0.00 0.06 0.01 48 1024.9
20240718182329 80 14 4.0 10.0 0.00 0.06 0.01 47 1025.1
20240718181831 80 43 4.0 7.0 0.00 0.06 0.01 45 1025.0
20240718180800 79 334 4.0 8.0 0.00 0.06 0.01 47 1025.1
20240718175255 78 305 3.0 8.0 0.00 0.06 0.01 48 1025.0
20240718174225 77 5 3.0 10.0 0.00 0.06 0.01 50 1024.9
20240718173220 76 328 3.0 7.0 0.00 0.06 0.01 53 1025.0
20240718172215 75 332 1.0 6.0 0.00 0.06 0.01 53 1025.0
20240718171209 74 311 3.0 7.0 0.00 0.06 0.01 55 1025.1
20240718170152 74 21 3.0 7.0 0.00 0.06 0.01 55 1025.1
20240718165654 73 5 4.0 8.0 0.00 0.06 0.01 57 1025.0
20240718164147 72 10 3.0 8.0 0.00 0.06 0.01 61 1025.0
20240718163142 71 15 4.0 11.0 0.00 0.06 0.01 63 1025.0
20240718162111 70 334 3.0 8.0 0.00 0.06 0.01 66 1025.0
20240718161108 69 318 3.0 8.0 0.00 0.06 0.01 67 1025.1
20240718160106 68 35 3.0 7.0 0.00 0.06 0.01 67 1025.3
20240718155106 67 23 1.0 7.0 0.00 0.06 0.01 68 1025.3
20240718154606 67 22 1.0 8.0 0.00 0.06 0.01 70 1025.3
20240718153104 66 30 4.0 8.0 0.00 0.06 0.01 73 1025.4
20240718152104 64 0 3.0 7.0 0.00 0.06 0.01 76 1025.4
20240718151106 63 345 1.0 7.0 0.00 0.06 0.01 77 1025.5
20240718150055 63 12 1.0 3.0 0.00 0.06 0.01 80 1025.5
20240718145053 62 16 1.0 7.0 0.00 0.06 0.01 81 1025.5
20240718144055 62 341 3.0 7.0 0.00 0.06 0.01 82 1025.5
20240718143050 61 10 1.0 7.0 0.00 0.06 0.01 84 1025.4
20240718142034 60 340 1.0 6.0 0.00 0.06 0.01 85 1025.5
20240718141533 60 334 1.0 6.0 0.00 0.06 0.01 86 1025.5
20240718140023 59 321 1.0 6.0 0.00 0.06 0.01 86 1025.4
20240718140019 58 10 1.0 6.0 0.00 0.06 0.01 87 1025.1
20240718134010 58 321 1.0 4.0 0.00 0.06 0.01 87 1025.1
20240718132944 58 317 1.0 4.0 0.00 0.06 0.01 88 1025.0
20240718131944 57 307 0.0 3.0 0.01 0.06 0.01 88 1024.9
20240718130942 56 307 0.0 3.0 0.01 0.06 0.01 88 1025.0
20240718125939 56 304 0.0 3.0 0.01 0.06 0.01 88 1025.0
20240718125415 55 304 0.0 0.0 0.01 0.06 0.01 87 1025.0
20240718125022 56 304 0.0 1.0 0.01 0.06 0.01 88 1024.9
20240718122906 55 304 0.0 1.0 0.01 0.06 0.01 87 1025.1
20240718121859 55 304 0.0 0.0 0.00 0.05 0.00 87 1024.9
20240718120855 55 304 0.0 0.0 0.00 0.05 0.00 87 1024.9
20240718115830 56 304 0.0 0.0 0.00 0.05 0.00 87 1024.9
20240718114829 56 304 0.0 0.0 0.00 0.05 0.00 87 1024.9
20240718113828 56 304 0.0 1.0 0.00 0.05 0.00 86 1024.9
20240718112832 56 304 0.0 3.0 0.00 0.05 0.00 86 1024.8
20240718111823 56 303 0.0 3.0 0.00 0.05 0.00 86 1024.9
20240718111308 56 303 0.0 3.0 0.00 0.05 0.00 86 1024.9
20240718105744 56 303 0.0 3.0 0.00 0.05 0.00 86 1024.6
20240718104718 56 303 0.0 6.0 0.00 0.05 0.00 86 1024.6
20240718104223 56 257 0.0 0.0 0.00 0.05 0.00 86 1024.6
20240718103219 56 257 0.0 1.0 0.00 0.05 0.00 86 1024.4
20240718101717 56 257 0.0 1.0 0.00 0.05 0.00 86 1024.3
20240718100715 57 257 0.0 0.0 0.00 0.05 0.00 86 1024.3
20240718100217 57 257 0.0 3.0 0.00 0.05 0.00 86 1024.3
20240718094706 58 257 0.0 4.0 0.00 0.05 0.00 86 1024.4
20240718093641 57 248 0.0 1.0 0.00 0.05 0.00 86 1024.6
20240718092641 57 248 0.0 0.0 0.00 0.05 0.00 86 1024.6
20240718091613 57 248 0.0 0.0 0.00 0.05 0.00 86 1024.8
20240718090613 58 248 0.0 1.0 0.00 0.05 0.00 86 1024.8
20240718085613 58 248 0.0 0.0 0.00 0.05 0.00 86 1024.9
20240718084611 58 248 0.0 0.0 0.00 0.05 0.00 86 1025.1
20240718083614 58 248 0.0 0.0 0.00 0.05 0.00 85 1025.3
20240718083113 58 248 0.0 0.0 0.00 0.05 0.00 85 1025.5
20240718082112 58 248 0.0 0.0 0.00 0.05 0.00 85 1025.6
20240718080553 58 248 0.0 0.0 0.00 0.05 0.00 84 1025.7
20240718075554 59 248 0.0 0.0 0.00 0.05 0.00 84 1025.7
20240718074551 59 248 0.0 1.0 0.00 0.05 0.00 84 1026.0
20240718074055 60 248 0.0 0.0 0.00 0.05 0.00 84 1026.0
20240718072528 60 248 0.0 0.0 0.00 0.05 0.00 84 1026.1
20240718071518 60 248 0.0 1.0 0.00 0.05 0.00 83 1026.1
20240718071014 61 248 0.0 0.0 0.00 0.05 0.00 84 1026.3
20240718065511 62 248 0.0 0.0 0.00 0.05 0.00 83 1026.5
20240718065003 62 248 0.0 0.0 0.00 0.05 0.00 83 1026.5
20240718063436 62 248 0.0 0.0 0.00 0.05 0.00 83 1026.5
20240718062410 62 248 0.0 0.0 0.00 0.05 0.00 83 1026.7
20240718061913 62 248 0.0 0.0 0.00 0.05 0.00 83 1026.9
20240718060410 62 248 0.0 0.0 0.00 0.05 0.00 82 1026.8
20240718055410 62 248 0.0 0.0 0.01 0.05 0.05 81 1026.9
20240718054904 62 248 0.0 0.0 0.05 0.05 0.05 80 1027.4
20240718053353 63 248 0.0 0.0 0.05 0.05 0.05 79 1027.5
20240718052849 63 248 0.0 1.0 0.05 0.05 0.05 78 1027.6
20240718051341 64 248 0.0 0.0 0.05 0.05 0.05 75 1027.5
20240718050335 65 248 0.0 1.0 0.05 0.05 0.05 72 1027.7
20240718045329 65 248 0.0 1.0 0.03 0.03 0.04 68 1028.0
20240718044825 65 248 0.0 1.0 0.00 0.00 0.00 63 1027.8
20240718043257 65 248 0.0 1.0 0.00 0.00 0.00 63 1028.0
20240718042255 65 248 0.0 3.0 0.00 0.00 0.00 63 1028.2
20240718041252 65 248 0.0 6.0 0.00 0.00 0.00 62 1028.3
20240718040256 66 285 0.0 0.0 0.00 0.00 0.00 62 1028.4
20240718035248 66 285 0.0 0.0 0.00 0.00 0.00 61 1028.4
20240718034240 67 285 0.0 0.0 0.00 0.00 0.00 60 1028.8
20240718033241 67 285 0.0 6.0 0.00 0.00 0.00 60 1028.9
20240718032239 68 7 1.0 7.0 0.00 0.00 0.00 60 1029.0
20240718031239 68 31 4.0 8.0 0.00 0.00 0.00 59 1029.0
20240718030240 68 30 4.0 10.0 0.00 0.00 0.00 58 1028.9
20240718025239 69 10 4.0 11.0 0.00 0.00 0.00 57 1028.9
20240718024237 69 35 8.0 14.0 0.00 0.00 0.00 58 1028.8
20240718023236 69 1 7.0 13.0 0.00 0.00 0.00 56 1028.7
20240718022240 70 18 8.0 15.0 0.00 0.00 0.00 55 1028.3
20240718021231 70 30 7.0 14.0 0.00 0.00 0.00 54 1028.2
20240718020229 70 22 7.0 14.0 0.00 0.00 0.00 55 1027.8
20240718015213 71 48 6.0 15.0 0.00 0.00 0.00 54 1027.5
20240718014216 71 34 8.0 25.0 0.00 0.00 0.00 53 1026.7
20240718013210 71 22 7.0 17.0 0.00 0.00 0.00 53 1026.3
20240718012204 72 91 7.0 18.0 0.00 0.00 0.00 54 1025.4
20240718011651 72 104 7.0 17.0 0.00 0.00 0.00 56 1025.0
20240718010150 74 34 6.0 18.0 0.00 0.00 0.00 54 1024.8
20240718005133 76 84 6.0 14.0 0.00 0.00 0.00 51 1024.3
20240718004134 77 86 6.0 20.0 0.00 0.00 0.00 45 1024.2
20240718003130 79 159 6.0 18.0 0.00 0.00 0.00 42 1024.3
20240718002059 82 52 6.0 17.0 0.00 0.00 0.00 36 1024.2
20240718001056 83 3 1.0 6.0 0.00 0.00 0.00 38 1023.9
20240718000037 83 5 1.0 6.0 0.00 0.00 0.00 36 1023.5
20240717235037 84 5 1.0 6.0 0.00 0.00 0.00 34 1023.2
20240717234037 84 10 1.0 6.0 0.00 0.00 0.00 33 1023.3
20240717233038 84 15 1.0 4.0 0.00 0.00 0.00 33 1023.4
20240717232028 85 16 1.0 6.0 0.00 0.00 0.00 31 1023.4
20240717231004 85 311 1.0 7.0 0.00 0.00 0.00 31 1023.5
20240717230004 87 280 0.0 6.0 0.00 0.00 0.00 30 1023.5
20240717224936 88 256 1.0 7.0 0.00 0.00 0.00 29 1023.5
20240717223926 87 190 3.0 8.0 0.00 0.00 0.00 30 1023.6
20240717222925 89 7 1.0 7.0 0.00 0.00 0.00 30 1023.7
20240717221923 88 3 1.0 8.0 0.00 0.00 0.00 32 1023.9
20240717220918 87 255 3.0 7.0 0.00 0.00 0.00 33 1023.9
20240717215918 88 228 4.0 8.0 0.00 0.00 0.00 32 1023.7
20240717214917 89 245 4.0 10.0 0.00 0.00 0.00 32 1023.9
20240717213916 86 290 4.0 10.0 0.00 0.00 0.00 35 1023.9
20240717212916 87 230 6.0 11.0 0.00 0.00 0.00 34 1024.0